{"data":{"norad_id":62417,"epoch":"2026-09-21T17:56:18.028032Z","epoch_age_seconds":66790,"freshness":"FRESH","line1":"1 62417U 24249J   26264.74743088  .00134406  00000+0  10344-2 0  9993","line2":"2 62417  42.9997  66.0495 0001940 274.4196  85.6450 15.70832957100319","mean_motion":15.70832957,"eccentricity":0.000194,"inclination_deg":42.9997,"raan_deg":66.0495,"arg_perigee_deg":274.4196,"mean_anomaly_deg":85.645,"bstar":0.0010344,"rev_number":10031,"period_min":91.671109495317,"perigee_km":355.20866933068,"apogee_km":357.82171438112,"semimajor_km":6734.6521918559,"source":"CELESTRAK","updated_at":"2026-09-22T09:00:49.576951Z"}}